Temperature
16 16 16 16 16 16 15 15 15 15 15 15 15 15 15 15 15 15 15 15 15 15 15 15 15 15 15 15 14 14 14 14 14 14 14 14 14 14 14 14 14 13 13
17 16 16 16 16 15 15 15 15 15 15 15 15 15 15 15 15 15 15 15 15 15 15 15 15 15 14 14 14 14 14 14 14 14 14 14 14 14 14 14 13 13 13
17 16 16 16 16 15 15 15 15 15 15 15 15 15 15 15 15 15 15 14 15 15 14 14 14 14 14 14 14 14 14 14 14 14 14 14 13 13 13 13 13 13 13
16 16 16 16 16 15 15 15 15 15 15 15 15 15 15 15 15 15 15 14 14 14 14 14 14 14 14 14 14 14 14 14 14 14 14 14 13 13 13 13 13 13 13
16 16 16 15 15 15 15 15 15 15 15 15 15 15 15 14 14 14 14 14 14 14 14 14 14 14 14 14 14 14 14 14 14 14 14 13 13 13 13 13 12 12 12
16 15 15 15 15 15 15 15 15 15 15 15 14 14 14 14 14 14 14 14 14 14 14 14 14 14 14 14 14 14 14 14 14 14 13 13 13 13 13 12 12 12 12
15 15 15 15 15 15 15 15 15 14 14 14 14 14 14 14 14 14 14 14 14 14 14 14 13 13 13 14 14 14 14 13 13 13 13 13 13 12 12 12 12 12 12
15 15 15 15 15 15 15 15 14 14 14 14 14 14 14 14 14 14 14 14 14 14 14 13 13 13 13 13 13 13 13 13 13 13 13 13 12 12 12 12 12 12 12
15 15 15 14 14 14 14 14 14 14 14 14 14 14 14 14 14 14 14 14 14 13 13 13 13 13 13 13 13 13 13 13 13 13 13 12 12 12 12 12 12 12 12
14 14 14 14 14 14 14 14 14 14 14 14 14 14 14 13 13 13 13 13 13 13 13 13 13 13 13 13 13 13 13 12 12 12 12 12 12 12 11 12 12 11 11
14 14 14 14 14 14 14 14 13 13 13 13 13 13 13 13 13 13 13 13 13 13 13 13 13 13 13 13 13 12 12 12 12 12 12 12 12 11 11 11 11 11 11
13 14 14 14 14 14 14 13 13 13 13 13 13 13 13 13 13 13 13 13 13 13 13 13 13 13 13 13 12 12 12 12 12 12 12 12 12 11 11 11 11 11 11
13 13 13 13 13 13 13 13 13 13 13 13 13 13 13 13 13 13 13 13 13 13 13 12 13 13 12 12 12 12 12 12 12 12 12 12 11 11 11 11 11 11 11
13 13 13 13 13 13 13 13 13 13 13 13 13 13 12 12 12 12 12 12 12 12 12 12 12 12 12 12 12 12 12 12 12 12 12 11 11 11 11 11 11 11 10
12 12 12 12 12 12 12 12 13 13 13 13 12 12 12 12 12 12 12 12 12 12 12 12 12 12 12 12 12 12 12 11 11 11 11 11 11 11 11 11 10 10 10
12 12 12 12 12 12 12 12 12 12 12 12 12 12 12 12 12 12 12 12 12 12 12 12 12 12 12 12 12 11 11 11 11 11 11 11 11 11 10 10 10 10 10
12 12 12 12 12 11 12 12 12 12 12 12 12 11 11 11 11 11 11 11 11 11 11 11 11 11 11 11 11 11 11 11 11 11 11 11 11 10 10 10 10 10 10
11 11 11 11 11 11 11 11 11 11 11 11 11 11 11 11 11 11 11 11 11 11 11 11 11 11 11 11 11 11 11 11 11 10 11 11 10 10 10 10 10 10 10
11 11 11 11 11 11 11 11 11 11 11 11 11 11 11 11 11 11 11 11 11 11 10 10 11 10 11 11 11 11 10 10 10 10 10 10 10 10 10 10 10 10 9
10 10 11 11 11 11 10 10 10 10 10 10 11 11 11 10 10 10 10 10 10 10 10 10 10 10 10 10 10 10 10 10 10 10 10 10 10 10 10 9 9 9 9
10 10 10 10 10 10 10 10 10 10 10 10 10 10 10 10 10 10 10 10 10 10 10 10 10 10 10 10 10 10 10 10 10 10 10 9 10 9 9 9 9 9 9
10 10 10 10 10 10 10 10 9 10 10 10 10 10 10 10 10 10 10 10 10 10 10 10 9 9 9 9 9 9 9 9 9 9 9 9 9 9 9 9 9 9 8
9 9 9 9 9 9 9 9 9 9 9 9 9 9 9 9 9 10 9 9 9 9 9 9 9 9 9 9 9 9 9 9 9 9 9 9 9 9 8 8 8 8 8
9 9 9 9 9 9 9 9 9 9 9 9 9 9 9 9 9 9 9 9 9 9 9 9 9 9 9 9 9 9 9 8 8 8 8 8 8 8 8 8 8 7 7
8 9 9 9 9 9 9 8 8 8 9 9 9 9 9 9 9 9 9 9 9 9 9 9 9 9 8 8 8 8 8 8 8 8 7 8 8 8 8 7 7 7 7
8 8 8 8 8 8 8 8 8 8 8 8 8 8 8 8 8 8 8 8 8 8 8 8 8 8 8 8 8 8 8 8 7 7 7 7 7 7 7 7 7 7 6
Wind_Speed
4 6 12 12 12 12 12 13 13 14 14 14 15 15 15 15 14 14 14 13 13 12 12 12 13 13 13 13 13 13 13 13 13 13 13 13 13 13 13 13 12 12 13
6 9 13 13 13 13 13 13 13 13 14 14 14 14 14 14 14 13 13 13 12 12 12 12 12 12 12 12 13 12 13 12 12 12 12 11 12 12 13 12 12 12 13
6 9 13 14 13 13 13 13 13 13 13 13 14 14 14 13 13 13 12 12 12 11 11 11 12 12 12 12 12 12 12 12 12 11 11 10 10 12 12 12 12 12 12
7 8 11 14 14 13 13 13 13 13 13 13 13 13 13 13 12 12 12 12 11 11 11 11 12 12 11 11 11 11 11 11 12 11 10 10 9 11 11 11 11 11 11
5 7 10 14 14 13 13 13 13 13 13 13 13 13 12 12 12 12 11 11 11 10 11 11 11 11 11 11 11 11 11 11 11 11 10 9 9 10 10 10 10 10 10
4 6 9 12 13 13 13 13 13 13 13 13 13 12 12 12 11 11 11 10 10 10 10 10 11 11 10 11 11 10 10 11 11 10 9 8 8 9 9 9 9 9 9
5 5 7 10 12 13 13 12 13 12 12 12 12 12 12 11 11 11 10 10 10 10 10 9 9 10 10 10 10 10 10 10 10 8 7 6 7 8 8 8 8 8 7
5 4 6 9 10 11 12 12 12 12 12 12 12 12 12 11 11 10 10 10 10 9 9 9 9 9 9 9 10 9 8 8 8 7 5 5 5 6 7 7 7 7 6
4 4 4 7 8 10 10 11 12 11 11 11 11 11 12 11 11 10 10 10 9 9 9 9 9 8 8 8 9 8 8 7 8 6 5 4 4 5 5 6 6 5 5
3 3 3 5 6 7 9 10 11 11 12 11 10 10 11 11 11 10 10 9 9 9 8 8 8 8 7 7 8 8 7 7 7 5 4 4 4 4 4 4 4 4 4
3 3 3 4 5 6 7 9 9 10 11 11 11 11 10 9 9 9 9 9 8 8 8 7 7 7 7 7 7 7 7 6 6 4 3 3 3 2 2 3 3 3 3
5 4 4 4 4 6 6 7 7 7 8 9 9 9 8 7 7 8 9 8 8 7 7 7 6 7 7 6 6 6 6 5 4 3 3 2 2 2 2 3 3 3 3
5 5 4 5 5 5 4 6 6 6 6 7 9 9 8 7 6 6 6 6 6 6 5 5 6 6 6 5 5 5 5 4 3 2 2 1 1 1 2 2 2 2 2
5 5 5 5 5 5 5 5 5 5 5 5 7 9 8 5 5 5 4 4 5 5 4 4 4 5 5 5 5 4 3 3 2 1 1 1 1 1 2 1 1 1 1
6 6 6 6 6 6 5 4 5 5 5 6 7 7 8 6 5 5 4 4 4 5 5 4 4 4 4 4 3 3 2 2 1 1 1 1 1 1 2 2 1 1 1
7 7 6 7 7 7 6 5 5 5 6 6 6 7 8 7 6 5 4 4 4 5 5 5 4 4 3 3 2 2 2 1 1 1 1 0 0 1 1 3 2 1 2
8 7 7 8 8 8 7 6 5 6 7 6 6 7 8 8 8 6 5 4 4 5 5 5 4 3 2 2 1 1 1 1 1 1 2 1 0 1 1 2 3 2 3
7 7 8 7 8 8 7 6 5 6 6 6 7 7 8 9 9 7 5 5 5 5 5 4 3 2 1 1 1 0 1 1 1 1 1 1 1 1 1 2 2 3 3
8 8 8 8 9 9 7 5 5 5 5 6 7 7 8 9 9 8 6 5 7 5 3 3 2 2 2 1 1 1 1 1 1 1 1 1 1 1 1 1 2 3 4
7 7 8 7 8 8 6 4 4 4 4 5 6 7 8 9 9 8 6 6 7 4 3 3 3 2 2 2 1 1 1 1 1 1 2 2 1 1 1 1 2 2 3
6 6 7 8 8 7 6 6 5 5 4 4 5 7 9 9 9 8 6 6 6 5 5 4 3 3 2 2 1 1 1 1 1 1 2 2 1 1 1 1 1 2 3
7 7 7 8 8 8 7 6 4 4 4 4 4 6 8 9 9 8 7 6 6 5 5 5 4 3 2 2 2 1 1 2 1 2 2 2 2 1 1 0 1 1 2
7 7 7 8 8 8 7 5 3 3 2 3 4 5 6 9 9 9 8 7 7 6 6 6 6 5 4 3 2 3 2 3 1 1 2 2 2 1 1 0 1 1 2
8 6 6 6 7 7 8 7 8 7 6 6 5 5 5 7 8 9 8 8 7 6 6 6 6 4 5 4 2 2 2 2 2 1 1 1 2 2 2 2 1 1 1
6 6 6 5 6 6 7 9 9 7 5 3 3 5 5 5 6 8 8 7 7 6 6 6 6 5 4 5 4 2 2 1 1 2 3 2 2 2 2 2 2 1 1
4 4 5 5 5 6 7 7 8 8 6 5 5 6 5 4 4 6 7 7 7 6 6 6 6 6 4 4 4 3 3 3 3 3 3 3 3 2 2 2 2 2 1
Wind_Direction
181 177 164 155 150 145 139 135 132 128 125 123 122 120 117 113 112 109 107 104 101 99 97 98 99 97 93 90 87 85 83 83 82 79 79 79 79 80 79 77 73 72 75
167 171 163 156 154 149 146 139 136 133 129 127 126 124 120 117 114 112 110 107 104 103 102 99 99 98 95 91 89 87 86 85 85 80 76 75 78 80 80 79 76 74 74
152 164 164 157 155 153 149 144 139 137 133 131 129 126 123 120 118 117 115 111 107 104 101 101 100 97 96 93 92 90 88 85 84 81 76 68 74 80 78 76 75 74 73
148 156 163 158 154 154 152 148 144 140 139 135 133 130 127 124 122 119 117 113 110 106 101 102 102 98 96 97 95 93 91 87 83 79 68 66 72 79 79 76 74 73 71
134 149 164 160 156 154 154 152 149 145 143 141 137 135 133 131 128 126 121 117 113 109 105 104 104 102 98 98 97 95 94 90 83 73 67 67 72 78 77 76 75 75 73
135 145 163 159 160 158 155 154 154 152 148 146 144 141 139 137 134 131 128 123 118 113 111 108 105 102 101 99 98 98 98 93 83 71 65 66 71 79 79 80 78 77 75
139 143 158 158 162 160 159 157 155 155 154 150 151 148 145 142 138 133 130 127 123 118 115 113 110 105 104 103 102 101 100 95 87 73 63 66 74 83 83 81 79 77 74
146 145 158 160 159 161 160 158 156 156 156 157 156 154 151 148 144 140 136 132 129 126 120 116 111 107 107 108 105 102 100 95 89 76 67 65 80 86 83 80 79 79 74
140 141 156 161 159 159 162 165 161 158 156 157 157 159 155 152 149 146 141 135 131 127 124 118 113 109 106 108 108 103 96 93 85 73 65 63 84 90 81 78 75 74 72
138 145 156 155 157 156 160 164 166 164 160 158 156 155 157 156 153 148 141 139 134 130 127 123 115 112 106 107 110 107 97 89 79 68 55 61 78 88 79 77 74 64 63
171 176 168 157 154 153 155 160 160 165 163 159 157 154 151 152 150 146 143 142 139 134 129 125 118 107 102 106 109 107 97 86 79 62 48 59 67 78 80 78 76 64 54
202 199 182 167 156 151 156 151 151 155 158 153 149 148 145 141 146 144 144 144 142 136 132 126 120 107 98 97 103 101 92 91 83 60 50 49 53 59 78 86 79 64 52
208 203 193 179 165 156 153 149 145 146 147 149 150 150 145 139 138 137 138 141 136 131 125 120 105 101 99 97 96 98 99 97 87 63 44 37 28 41 57 88 76 60 45
212 213 199 181 172 168 159 158 155 152 154 156 161 158 150 144 140 141 143 144 138 136 124 115 108 106 105 106 107 103 104 109 103 77 47 26 18 14 21 29 52 53 48
217 216 210 188 177 174 166 169 165 165 169 169 167 169 164 158 157 152 155 156 152 146 140 131 121 114 112 110 112 118 121 129 131 123 76 33 20 15 9 8 20 13 40
220 216 213 199 184 177 179 178 176 173 171 171 175 178 174 169 166 162 162 163 167 162 155 148 142 131 126 121 115 122 140 143 159 162 150 164 244 349 339 342 339 5 360
223 215 209 208 187 181 181 184 180 176 174 178 182 181 181 178 174 170 167 171 175 167 156 142 132 125 121 111 104 126 130 154 158 166 167 156 117 332 317 325 332 341 344
226 215 211 212 193 189 186 183 183 180 179 182 183 185 188 187 181 174 172 181 177 163 156 152 148 147 150 150 185 208 131 156 171 162 150 139 121 80 337 320 324 331 337
225 215 210 211 196 190 186 181 180 182 187 185 185 188 191 191 187 180 180 183 174 162 161 168 163 162 169 177 218 241 219 211 192 175 164 154 144 120 74 346 321 325 329
226 216 213 208 198 184 178 173 174 183 193 191 192 193 192 192 189 183 181 182 174 167 172 171 173 166 171 176 199 289 260 243 184 189 197 179 154 130 98 67 18 341 333
223 217 214 207 197 181 181 183 185 195 198 201 203 194 194 192 189 184 183 179 177 183 186 177 173 168 176 155 126 322 311 253 223 216 194 177 174 148 106 88 46 24 356
226 218 217 212 202 191 190 186 185 183 194 202 201 194 195 193 190 191 185 185 184 184 184 184 177 171 185 177 161 153 282 286 269 232 212 199 202 158 140 89 41 16 354
231 223 220 218 209 196 185 169 157 148 153 185 197 200 198 196 194 192 190 189 190 189 195 193 188 187 190 203 192 172 183 226 269 270 223 211 201 189 199 137 27 356 332
234 230 223 221 212 196 183 180 180 190 200 205 199 200 196 197 195 192 190 191 192 192 198 201 196 199 186 197 209 212 196 178 187 256 275 229 210 206 218 217 228 302 313
231 225 219 215 210 195 187 187 190 200 205 200 189 187 195 198 197 193 189 190 193 196 196 197 196 197 200 200 195 194 199 203 197 201 254 266 260 228 221 210 204 248 300
237 227 215 207 207 193 187 189 194 198 194 191 194 193 196 201 198 192 189 191 193 194 197 200 199 198 202 201 198 194 194 193 192 196 223 247 259 259 241 226 218 231 280
Height
1501 1504 1506 1508 1510 1512 1513 1514 1516 1516 1517 1518 1519 1520 1521 1522 1522 1523 1524 1525 1526 1526 1527 1528 1528 1529 1529 1530 1530 1530 1531 1531 1531 1531 1532 1532 1532 1532 1532 1532 1532 1533 1533
1500 1503 1505 1508 1510 1511 1513 1514 1516 1517 1518 1519 1519 1520 1521 1522 1523 1524 1525 1525 1526 1527 1527 1528 1529 1529 1530 1530 1531 1531 1532 1532 1532 1532 1533 1533 1533 1534 1534 1533 1534 1534 1534
1499 1502 1504 1507 1509 1511 1513 1514 1516 1517 1518 1519 1520 1521 1521 1522 1523 1524 1525 1526 1526 1527 1528 1528 1529 1529 1530 1531 1531 1532 1532 1532 1533 1533 1534 1534 1534 1535 1535 1535 1535 1535 1535
1499 1501 1504 1506 1508 1510 1512 1514 1515 1516 1518 1519 1520 1521 1522 1522 1523 1524 1525 1526 1526 1527 1528 1529 1529 1530 1530 1531 1532 1532 1533 1533 1534 1534 1534 1535 1535 1536 1536 1536 1535 1535 1535
1499 1501 1503 1505 1507 1509 1511 1513 1515 1516 1517 1518 1520 1521 1521 1522 1523 1524 1525 1526 1527 1527 1528 1529 1529 1530 1531 1531 1532 1533 1533 1534 1534 1535 1535 1535 1536 1536 1536 1536 1536 1536 1536
1498 1500 1503 1505 1507 1509 1510 1512 1514 1515 1517 1518 1519 1520 1521 1522 1523 1524 1525 1526 1527 1527 1528 1529 1529 1530 1531 1531 1532 1533 1533 1534 1535 1535 1535 1536 1536 1536 1536 1536 1536 1536 1536
1497 1500 1502 1504 1506 1508 1509 1511 1513 1514 1516 1517 1518 1520 1521 1522 1523 1524 1525 1526 1526 1527 1528 1529 1530 1530 1531 1532 1532 1533 1534 1534 1535 1535 1536 1536 1536 1536 1536 1536 1536 1536 1536
1497 1499 1501 1503 1505 1507 1508 1510 1512 1513 1515 1516 1518 1519 1520 1521 1522 1523 1524 1525 1526 1527 1528 1529 1529 1530 1531 1532 1532 1533 1534 1534 1535 1535 1535 1536 1536 1536 1536 1536 1536 1536 1536
1496 1498 1500 1502 1503 1505 1507 1509 1511 1512 1514 1515 1516 1518 1519 1520 1521 1523 1524 1525 1526 1527 1527 1528 1529 1530 1531 1532 1532 1533 1534 1534 1535 1535 1535 1536 1536 1536 1536 1536 1536 1536 1536
1495 1496 1498 1500 1502 1503 1505 1507 1509 1511 1512 1514 1515 1516 1518 1519 1520 1522 1523 1524 1525 1526 1527 1528 1529 1530 1530 1531 1532 1533 1533 1534 1534 1535 1535 1535 1536 1536 1536 1536 1536 1535 1535
1493 1495 1496 1498 1500 1502 1503 1505 1507 1509 1511 1512 1514 1515 1517 1518 1519 1520 1522 1523 1524 1525 1526 1527 1528 1529 1530 1531 1532 1532 1533 1533 1534 1534 1534 1535 1535 1535 1535 1535 1535 1535 1535
1489 1492 1494 1496 1498 1500 1502 1504 1505 1507 1509 1510 1512 1513 1515 1516 1517 1519 1521 1522 1523 1524 1525 1526 1527 1528 1529 1530 1531 1531 1532 1532 1533 1533 1534 1534 1534 1535 1535 1535 1535 1534 1534
1487 1489 1491 1493 1496 1498 1499 1501 1503 1505 1507 1508 1510 1511 1513 1515 1516 1517 1519 1520 1522 1523 1524 1525 1526 1527 1528 1529 1530 1530 1531 1531 1532 1532 1533 1533 1533 1534 1534 1534 1534 1533 1533
1484 1486 1488 1490 1493 1495 1497 1499 1501 1502 1504 1506 1507 1509 1511 1512 1514 1516 1517 1519 1520 1522 1523 1524 1525 1526 1527 1528 1529 1529 1530 1530 1530 1531 1531 1532 1532 1533 1533 1533 1532 1532 1532
1481 1483 1485 1487 1489 1491 1494 1496 1498 1500 1502 1503 1505 1507 1509 1510 1512 1514 1515 1517 1519 1520 1521 1523 1524 1525 1526 1527 1527 1528 1528 1529 1529 1529 1530 1530 1531 1531 1531 1531 1531 1530 1530
1478 1479 1481 1483 1486 1488 1490 1492 1495 1497 1499 1501 1503 1504 1506 1508 1510 1512 1513 1515 1517 1518 1520 1521 1522 1523 1524 1525 1526 1526 1527 1527 1528 1528 1528 1529 1529 1529 1529 1529 1529 1529 1528
1474 1475 1477 1479 1482 1484 1486 1489 1491 1493 1496 1498 1500 1502 1504 1506 1508 1510 1511 1513 1514 1516 1518 1519 1520 1521 1522 1523 1524 1524 1525 1525 1526 1526 1526 1527 1527 1527 1527 1527 1527 1526 1526
1470 1471 1473 1475 1477 1480 1482 1485 1487 1490 1492 1495 1497 1499 1501 1503 1505 1507 1509 1510 1512 1513 1515 1516 1517 1519 1519 1520 1521 1522 1522 1523 1523 1524 1524 1524 1524 1525 1525 1525 1524 1524 1523
1466 1467 1469 1470 1473 1475 1478 1481 1484 1486 1488 1491 1493 1496 1498 1500 1502 1504 1506 1507 1509 1511 1512 1513 1515 1516 1516 1517 1518 1519 1519 1520 1520 1521 1521 1521 1522 1522 1522 1522 1521 1521 1521
1462 1463 1464 1465 1468 1471 1474 1476 1479 1482 1484 1487 1489 1491 1494 1496 1498 1500 1502 1504 1506 1507 1509 1510 1511 1513 1514 1514 1515 1516 1516 1517 1517 1517 1518 1518 1519 1519 1519 1519 1518 1518 1518
1457 1458 1460 1461 1463 1465 1468 1470 1473 1476 1479 1482 1485 1487 1490 1492 1494 1496 1498 1500 1502 1504 1505 1507 1508 1509 1510 1511 1512 1512 1512 1513 1513 1513 1514 1515 1515 1515 1515 1515 1515 1514 1514
1452 1453 1455 1456 1458 1460 1463 1466 1469 1472 1475 1478 1481 1483 1485 1487 1490 1492 1494 1496 1498 1500 1502 1503 1504 1505 1506 1508 1509 1509 1509 1510 1509 1510 1510 1510 1511 1512 1512 1511 1511 1511 1510
1447 1448 1449 1451 1453 1455 1458 1462 1465 1468 1470 1473 1475 1478 1480 1483 1485 1487 1489 1492 1493 1496 1497 1499 1500 1501 1502 1504 1505 1507 1506 1505 1505 1505 1506 1506 1507 1507 1507 1508 1507 1507 1506
1442 1443 1445 1446 1447 1450 1453 1456 1459 1461 1463 1466 1470 1473 1475 1478 1480 1482 1485 1487 1489 1491 1493 1494 1496 1497 1499 1499 1501 1502 1503 1502 1503 1501 1502 1502 1502 1503 1503 1503 1503 1503 1502
1437 1439 1440 1441 1443 1445 1448 1451 1454 1457 1459 1463 1466 1468 1470 1473 1475 1478 1480 1482 1484 1486 1488 1490 1491 1493 1494 1495 1496 1497 1498 1498 1498 1498 1497 1497 1498 1498 1498 1498 1498 1498 1498
1433 1434 1435 1437 1438 1441 1444 1446 1449 1452 1455 1458 1460 1463 1466 1468 1470 1473 1475 1477 1479 1481 1483 1485 1487 1488 1490 1491 1492 1493 1493 1493 1493 1494 1493 1492 1492 1493 1493 1493 1493 1493 1493